Change the Weather History Date:

Wednesday, August 13, 2014

  Actual Average Record
Temperature  
Mean Temperature 66 °F -  
Max Temperature 70 °F 81 °F 94 °F (1944)
Min Temperature 62 °F 55 °F 42 °F (1930)
Cooling Degree Days 1    
Growing Degree Days 16 (Base 50)    
Moisture  
Dew Point 60 °F    
Average Humidity 84    
Maximum Humidity 93    
Minimum Humidity 71    
Precipitation  
Precipitation 1.11 in - - ()
Sea Level Pressure  
Sea Level Pressure 29.78 in    
Wind  
Wind Speed 6 mph (ENE)    
Max Wind Speed 10 mph    
Max Gust Speed 22 mph    
Visibility 7 miles    
Events Rain    
Averages and records for this station are not official NWS values.
T = Trace of Precipitation, MM = Missing Value Source: NWS Daily Summary

Daily Weather History Graph

Daily Weather History Graph

Search for Another Location

Airport or City:

Trip Planner

Search our weather history database for the weather conditions in past years. The results will help you decide how hot, cold, wet, or windy it might be!

Date:

Astronomy

Aug. 13, 2014 Rise Set
Actual Time 5:51 AM EDT 7:55 PM EDT
Civil Twilight 5:20 AM EDT 8:26 PM EDT
Nautical Twilight 4:41 AM EDT 9:05 PM EDT
Astronomical Twilight 3:59 AM EDT 9:47 PM EDT
Moon 9:30 PM EDT (8/13) 9:24 AM EDT (8/13)
Length of Visible Light 15h 06m
Length of Day
14h 04m
Waning Gibbous, 88% of the Moon is Illuminated
Aug 13
Waning Gibbous
Aug 17
Last Quarter
Aug 25
New
Sep 2
First Quarter
Sep 8
Full

Hourly Weather History & Observations

Time (EDT) Temp. Dew Point Humidity Pressure Visibility Wind Dir Wind Speed Gust Speed Precip Events Conditions
12:53 AM 70.0 °F 60.1 °F 71% 29.95 in 10.0 mi SE 6.9 mph - N/A   Overcast
1:53 AM 69.1 °F 61.0 °F 75% 29.93 in 10.0 mi Variable 4.6 mph - N/A   Overcast
2:53 AM 70.0 °F 61.0 °F 73% 29.90 in 10.0 mi Variable 5.8 mph - N/A   Mostly Cloudy
3:53 AM 70.0 °F 61.0 °F 73% 29.89 in 10.0 mi SSE 3.5 mph - N/A   Overcast
4:53 AM 70.0 °F 61.0 °F 73% 29.87 in 10.0 mi Variable 6.9 mph - N/A   Overcast
5:03 AM 70.0 °F 62.1 °F 76% 29.89 in 10.0 mi Variable 6.9 mph - N/A   Overcast
5:39 AM 69.1 °F 62.1 °F 78% 29.88 in 10.0 mi Variable 6.9 mph - N/A   Overcast
5:53 AM 69.1 °F 62.1 °F 78% 29.86 in 10.0 mi Variable 4.6 mph - N/A   Overcast
6:53 AM 66.9 °F 63.0 °F 87% 29.85 in 3.0 mi Variable 5.8 mph - 0.02 in Rain Light Rain
9:53 AM 66.9 °F 61.0 °F 81% 29.84 in 10.0 mi Variable 6.9 mph - N/A   Overcast
11:12 AM 66.9 °F 61.0 °F 81% 29.83 in 6.0 mi ESE 10.4 mph 21.9 mph 0.00 in Rain Light Rain
11:53 AM 66.0 °F 61.0 °F 84% 29.82 in 3.0 mi SE 9.2 mph 16.1 mph 0.09 in Rain Rain
12:45 PM 64.9 °F 60.1 °F 84% 29.84 in 2.0 mi Variable 4.6 mph - 0.21 in Rain Rain
12:53 PM 64.9 °F 60.1 °F 84% 29.82 in 2.0 mi SSW 5.8 mph - 0.24 in Rain Rain
1:34 PM 64.0 °F 60.1 °F 87% 29.81 in 2.0 mi Variable 5.8 mph - 0.21 in Rain Rain
1:53 PM 64.0 °F 60.1 °F 87% 29.78 in 2.0 mi Variable 5.8 mph - 0.30 in Rain Rain
2:27 PM 64.0 °F 60.1 °F 87% 29.78 in 1.8 mi Variable 3.5 mph - 0.15 in Rain Rain
2:38 PM 64.0 °F 59.0 °F 84% 29.77 in 2.5 mi Variable 3.5 mph - 0.19 in Rain Light Rain
2:45 PM 63.0 °F 59.0 °F 87% 29.76 in 3.0 mi NE 10.4 mph 17.3 mph 0.21 in Rain Rain
2:53 PM 63.0 °F 60.1 °F 90% 29.72 in 2.5 mi NE 8.1 mph 17.3 mph 0.24 in Rain Rain
3:12 PM 64.0 °F 59.0 °F 84% 29.75 in 3.0 mi Variable 6.9 mph 17.3 mph 0.07 in Rain Rain
3:53 PM 64.0 °F 60.1 °F 87% 29.70 in 4.0 mi Calm Calm - 0.14 in Rain Light Rain
4:00 PM 64.0 °F 60.1 °F 87% 29.70 in 6.0 mi NE 6.9 mph - 0.01 in Rain Light Rain
4:14 PM 64.0 °F 59.0 °F 84% 29.71 in 8.0 mi Variable 4.6 mph - 0.03 in Rain Light Rain
4:53 PM 64.0 °F 57.9 °F 80% 29.67 in 10.0 mi ENE 8.1 mph 18.4 mph 0.04 in Rain Light Rain
5:53 PM 64.0 °F 60.1 °F 87% 29.68 in 10.0 mi Calm Calm - 0.00 in   Overcast
6:53 PM 64.0 °F 60.1 °F 87% 29.67 in 10.0 mi North 4.6 mph - 0.00 in   Overcast
7:53 PM 63.0 °F 59.0 °F 87% 29.67 in 10.0 mi Calm Calm - N/A   Overcast
8:53 PM 63.0 °F 59.0 °F 87% 29.69 in 10.0 mi Variable 3.5 mph - N/A   Overcast
9:02 PM 63.0 °F 60.1 °F 90% 29.72 in 9.0 mi NNW 3.5 mph - 0.00 in Rain Light Rain
9:10 PM 63.0 °F 60.1 °F 90% 29.72 in 7.0 mi Variable 3.5 mph - 0.01 in Rain Light Rain
9:53 PM 63.0 °F 60.1 °F 90% 29.70 in 6.0 mi Calm Calm - 0.01 in Rain Light Rain
10:53 PM 62.1 °F 60.1 °F 93% 29.68 in 7.0 mi NE 3.5 mph - 0.03 in   Overcast
11:08 PM 63.0 °F 60.1 °F 90% 29.70 in 5.0 mi Calm Calm - N/A   Overcast